Regional Weather Roundup
Issued by NWS Wilmington, NC

Home | Current Version | Previous Version | Text Only | Print | Product List | Glossary On
Versions: 1 2 3 4 5 6 7 8 9 10 11 12 13 14 15 16 17 18 19 20 21 22 23 24 25 26 27 28 29 30 31 32 33 34 35 36 37 38 39 40 41 42 43 44 45 46 47 48 49 50
000
ASUS42 KILM 191310
RWRILM
RWRILM
REGIONAL HOURLY WEATHER ROUNDUP
NATIONAL WEATHER SERVICE WILMINGTON NC
800 AM EST FRI DEC 19 2014

NOTE: "FAIR" INDICATES FEW OR NO CLOUDS BELOW 12,000 FEET WITH NO
SIGNIFICANT WEATHER AND/OR OBSTRUCTIONS TO VISIBILITY.

...............WFO WILMINGTON COUNTY WARNING AREA...............

......COASTAL NC AND SC COUNTIES......

CITY           SKY/WX    TMP DP  RH WIND       PRES   REMARKS
WILMINGTON     CLEAR     35  33  92 CALM      30.14R
SOUTHPORT      PTCLDY    38  35  90 N3        30.14R
N MYRTLE BEACH PTCLDY    37  35  92 N5        30.13R WCI  33
MYRTLE BEACH   NOT AVBL

......INLAND NC AND SC COUNTIES.......

CITY           SKY/WX    TMP DP  RH WIND       PRES   REMARKS
LUMBERTON      CLEAR     34  31  88 CALM      30.15R
ELIZABETHTOWN  CLEAR     37  32  84 CALM      30.15R
WHITEVILLE     CLEAR     33  32  94 CALM      30.14R
FLORENCE       CLEAR     37  31  78 CALM      30.15R
DARLINGTON     CLEAR     36  28  75 N3        30.16R

....................REST OF NORTH CAROLINA......................

.........EASTERN NC.........

CITY           SKY/WX    TMP DP  RH WIND       PRES   REMARKS
CAPE HATTERAS  CLEAR     43  36  76 VRB3      30.12R
JACKSONVILLE   CLEAR     32  28  86 CALM      30.15R
MOREHEAD CITY  CLEAR     42  36  79 NW7       30.13S
KENANSVILLE    MOCLDY    33  33  99 CALM      30.16R
NEW BERN       CLEAR     34  31  88 CALM      30.15R
ELIZABETH CITY CLEAR     39  30  70 N8        30.15R WCI  33

.........CENTRAL NC.........

CITY           SKY/WX    TMP DP  RH WIND       PRES   REMARKS
RALEIGH DURHAM PTCLDY    38  24  57 CALM      30.16R
ROCKY MOUNT    CLEAR     33  30  88 CALM      30.16R
ROANOKE RAPIDS NOT AVBL
FAYETTEVILLE   CLEAR     35  32  88 CALM      30.15R
HOFFMAN        CLEAR     30  30  99 N3        30.17R

.........WESTERN NC.........

CITY           SKY/WX    TMP DP  RH WIND       PRES   REMARKS
CHARLOTTE      PTCLDY    35  24  64 N5        30.16R WCI  31
GREENSBORO     PTCLDY    38  20  48 N3        30.14R
HICKORY        NOT AVBL
BOONE          NOT AVBL
ASHEVILLE      NOT AVBL

.....................REST OF SOUTH CAROLINA.....................

.........EASTERN SC.........

CITY           SKY/WX    TMP DP  RH WIND       PRES   REMARKS
CHARLESTON     PTCLDY    40  39  97 CALM      30.13R FOG
BEAUFORT MCAS  PTCLDY    44  40  85 CALM      30.14R
HILTON HEAD    PTCLDY    46  43  87 CALM      30.15R

.........CENTRAL SC.........

CITY           SKY/WX    TMP DP  RH WIND       PRES   REMARKS
COLUMBIA       MOCLDY    35  32  88 W3        30.14R
ORANGEBURG     CLEAR     39  35  86 CALM      30.13R
SUMTER SHAW    CLEAR     36  33  89 NE7       30.13R WCI  30

.........WESTERN SC.........

CITY           SKY/WX    TMP DP  RH WIND       PRES   REMARKS
GREENVILLE     NOT AVBL
ROCK HILL      CLEAR     31  29  92 N5        30.16R WCI  26
ANDERSON       PTCLDY    35  30  82 CALM      30.15R
CLEMSON        NOT AVBL
GREENWOOD      PTCLDY    34  31  88 N5        30.16R WCI  30


...................COASTAL AND OFFSHORE REPORTS..................

................LOCAL PIERS AND NC RESERVE................


STATION/POSITION TIME  SKY/WX   TEMP    WIND        PRES    VSBY
                                AIR SEA DIR/SP/G
                 (UTC)          (F)     (DEG/KT/KT) (MB)    (MI)
JOHNY MRCER PIER 1300            41 56  330/  6/  7 1019.9R
NC RESRV MASNBRO 1200            38        CALM     1019.0S
OCEAN CREST PIER 1300            39 54  340/  7/  9 1019.3R
SPRINGMAID  PIER 1300            43 53  350/  4/  4 1020.3R


................COASTAL AND OFFSHORE BUOYS................


STATION/POSITION TIME  SKY/WX   TEMP    WIND        PRES    VSBY
                                AIR SEA DIR/SP/G
                 (UTC)          (F)     (DEG/KT/KT) (MB)    (MI)
DIMNDSHOAL 41025 1300            50                 1019.9R
WVE H/P(F/S)=  2/ 8

CAPE LOOKOUT     1200            46     330/ 12/ 13 1019.7R
ONSLOW BAY 41036 1200            52 61  350/ 12/ 14 1020.2R
5 WRITEBCH 41038 NOT AVBL
MASONBORO  41110 1300               55                N/A
WVE H/P(F/S)=  2/11 WND WVE H/P(F/S)=  2/ 9

WILM HARBR 41108 1300               55                N/A
WVE H/P(F/S)=  1/10 WND WVE H/P(F/S)=  2/10

27WRITEBCH 41037 1200            50 66   20/ 10/ 14 1020.5R
FRYING PAN 41013 1300            56 65  360/ 10/ 12 1020.5R
WVE H/P(F/S)=  2/11 WND WVE H/P(F/S)=  2/ 4 SWL H/P/D(F/S/D)=  2/120/11

SUNST NRSH 41024 1200            45      10/  8/ 10   N/A
CAPRS NRSH 41029 1200            53      30/  4/  4   N/A
EDISTO     41004 1300            61 72  330/  6/  8 1019.5R
WVE H/P(F/S)=  1/10 SWL H/P/D(F/S/D)=  2/10



..........OFFSHORE BUOYS BEYOND 100 NM OFFSHORE...........
.....IN A TRIANGLE---HAT TO BERMUDA TO BAHAMAS TO HAT.....


STATION/POSITION TIME  SKY/WX   TEMP    WIND        PRES    VSBY
                                AIR SEA DIR/SP/G
                 (UTC)          (F)     (DEG/KT/KT) (MB)    (MI)
150E HAT   41001 NOT AVBL
W BERMUDA  41048 1209            69 72  300/ 12/ 16 1016.5
WVE H/P(F/S)=  6/ 9 WND WVE H/P(F/S)=  2/ 4 SWL H/P/D(F/S/D)=  5/ 10/ 9

ATLANTIC S 41049 1242            75 77  260/  8/ 12 1018.6R
WVE H/P(F/S)=  5/ 9

E BAHAMAS  41046 1244            76 80  100/  6/ 10 1017.9R
WVE H/P(F/S)=  4/ 9 SWL H/P/D(F/S/D)=  3/ 10/ 9

NE BAHAMAS 41047 1152            74 78  280/  6/ 10 1018.4
WVE H/P(F/S)=  3/10 WND WVE H/P(F/S)=  2/ 4 SWL H/P/D(F/S/D)=  3/ 80/10

120E CANVRL41010 1300            69 76  300/  6/  8 1019.4R
WVE H/P(F/S)=  2/10 WND WVE H/P(F/S)=  2/ 4 SWL H/P/D(F/S/D)=  2/ 60/10


END



USA.gov is the U.S. government's official web portal to all federal, state and local government web resources and services.